TimeNZST,TemperatureF,Dew PointF,Humidity,Sea Level PressureIn,VisibilityMPH,Wind Direction,Wind SpeedMPH,Gust SpeedMPH,PrecipitationIn,Events,Conditions,WindDirDegrees,DateUTC
12:00 AM,51.8,50.0,94,29.77,6.2,NNW,2.3,-,N/A,,Light Drizzle,340,2013-05-20 12:00:00
1:00 AM,51.8,50.0,94,29.77,6.2,North,1.2,-,N/A,,Light Drizzle,10,2013-05-20 13:00:00
2:00 AM,51.8,50.0,94,29.77,6.2,SW,2.3,-,N/A,,Light Drizzle,230,2013-05-20 14:00:00
3:00 AM,50.0,48.2,94,29.77,6.2,SW,3.5,-,N/A,,Light Drizzle,220,2013-05-20 15:00:00
4:00 AM,50.0,50.0,100,29.77,3.7,SW,3.5,-,N/A,,Light Drizzle,230,2013-05-20 16:00:00
5:00 AM,51.8,50.0,94,29.77,3.7,South,3.5,-,N/A,Rain,Light Rain,180,2013-05-20 17:00:00
6:00 AM,51.8,51.8,100,29.77,6.2,ESE,5.8,-,N/A,,Light Drizzle,110,2013-05-20 18:00:00
7:00 AM,53.6,51.8,94,29.80,6.2,ESE,6.9,-,N/A,Rain,Rain,110,2013-05-20 19:00:00
8:00 AM,53.6,51.8,94,29.80,6.2,East,5.8,-,N/A,Rain,Rain Showers,100,2013-05-20 20:00:00
9:00 AM,53.6,51.8,94,29.80,6.2,East,4.6,-,N/A,Rain,Light Rain,80,2013-05-20 21:00:00
10:00 AM,53.6,53.6,100,29.80,6.2,ENE,11.5,-,N/A,Rain,Rain Showers,70,2013-05-20 22:00:00
11:00 AM,53.6,51.8,94,29.80,5.0,East,10.4,-,N/A,Rain,Rain,90,2013-05-20 23:00:00
12:00 PM,53.6,53.6,100,29.77,6.2,East,11.5,-,N/A,Rain,Rain,90,2013-05-21 00:00:00
1:00 PM,53.6,51.8,94,29.77,6.2,East,13.8,-,N/A,,Mostly Cloudy,80,2013-05-21 01:00:00
2:00 PM,53.6,51.8,94,29.74,6.2,East,12.7,-,N/A,,Mostly Cloudy,80,2013-05-21 02:00:00
3:00 PM,53.6,51.8,94,29.71,6.2,East,13.8,-,N/A,,Overcast,90,2013-05-21 03:00:00
4:00 PM,53.6,51.8,94,29.71,6.2,East,11.5,-,N/A,,Mostly Cloudy,90,2013-05-21 04:00:00
5:00 PM,55.4,53.6,94,29.71,6.2,East,10.4,-,N/A,Rain,Rain Showers,90,2013-05-21 05:00:00
6:00 PM,53.6,53.6,100,29.71,6.2,East,10.4,-,N/A,Rain,Rain Showers,80,2013-05-21 06:00:00
7:00 PM,55.4,53.6,94,29.71,6.2,ENE,12.7,-,N/A,,Mostly Cloudy,60,2013-05-21 07:00:00
8:00 PM,53.6,53.6,100,29.68,6.2,ENE,10.4,-,N/A,Rain,Rain,70,2013-05-21 08:00:00
9:00 PM,53.6,53.6,100,29.68,6.2,East,11.5,-,N/A,Rain,Rain Showers,80,2013-05-21 09:00:00
10:00 PM,53.6,51.8,94,29.68,6.2,NNE,6.9,-,N/A,Rain,Rain Showers,30,2013-05-21 10:00:00
10:10 PM,51.8,50.0,94,29.68,6.2,NE,4.6,-,N/A,,Mostly Cloudy,40,2013-05-21 10:10:00
11:00 PM,50.0,50.0,100,29.68,6.2,NE,3.5,-,N/A,,Mostly Cloudy,40,2013-05-21 11:00:00
11:25 PM,51.8,51.8,100,29.65,6.2,NE,3.5,-,N/A,,Mostly Cloudy,50,2013-05-21 11:25:00